Hourly Data Report for August 03, 2010

IQALUIT CLIMATE
NUNAVUT

63°44'50.000" N
68°32'40.000" W
33.50 m
2402592
71321
XFB

Download Data

Hourly Data (August 2010)
Hourly Data Report for August 3, 2010
TIME
LST
Temp Definition
°C
Dew Point Definition
°C
Rel Hum Definition
%
Precip. Amount Definition
mm

Wind Dir Definition
10's deg

Wind Spd Definition
km/h
Visibility Definition
km
Stn Press Definition
kPa
Hmdx Definition


Wind Chill Definition


Weather Definition


00:00 6.8 5.6 92   36 2   100.70     LegendNANA
01:00 7.0 6.2 95   33 9   100.70     LegendNANA
02:00 7.5 5.5 87   17 4   100.72     LegendNANA
03:00 5.6 5.2 97   14 4   100.73     LegendNANA
04:00 6.1 5.8 98   17 2   100.72     LegendNANA
05:00 6.9 5.7 92   16 2   100.71     LegendNANA
06:00 8.1 6.3 88   19 2   100.71     LegendNANA
07:00 9.0 6.8 86   15 4   100.69     LegendNANA
08:00 10.3 7.5 83   15 6   100.68     LegendNANA
09:00 10.0 7.2 83   15 6   100.65     LegendNANA
10:00 10.7 7.5 81   14 7   100.63     LegendNANA
11:00 10.1 7.0 81   14 7   100.59     LegendNANA
12:00 10.6 7.1 79   15 9   100.56     LegendNANA
13:00 10.2 6.0 75   13 7   100.55     LegendNANA
14:00 10.3 6.2 76   16 7   100.52     LegendNANA
15:00 9.5 6.4 81   15 9   100.51     LegendNANA
16:00 8.5 5.5 81   15 13   100.50     LegendNANA
17:00 8.3 5.8 84   14 9   100.47     LegendNANA
18:00 8.1 5.8 85   16 9   100.44     LegendNANA
19:00 7.7 5.2 84   16 6   100.42     LegendNANA
20:00 8.0 5.6 85   13 4   100.41     LegendNANA
21:00 7.0 5.5 90   14 9   100.38     LegendNANA
22:00 7.0 5.8 92   14 6   100.32     LegendNANA
23:00 6.8 5.5 91   13 4   100.30     LegendNANA

Notes on Data Quality.

Legend

  • E = Estimated
  • M = Missing
  • NA = Not Available*
  • [empty] = Indicates an unobserved value
Date modified: